Location: Andrest
(43.3200°N, 0.0641°E)
Time: 21:13:18
(UTC+00:00)

FALCON 9 R/B - Pass Details

Date: 01 December 2020
Orbit: 300 x 10107 km, 34.5° (Epoch: 19 January)

Event Time Altitude Azimuth Distance (km) Brightness Sun altitude
Rises 18:25:48 0° 244° (WSW) 1,986 5.5 -21.4°
Reaches altitude 10° 18:27:57 10° 215° (SW) 1,211 3.7 -21.7°
Enters shadow 18:28:50 14° 192° (SSW) 1,082 3.1 -21.9°
